When you browse on this site, cookies collect data to enhance your experience and personalize the content and advertising you see.
Visit our Privacy Policy to learn more. By continuing to use the site, you agree to this use of cookies and data.
  • In Spain
  • List of Countries
  • For 7 days
  • Water Temperature
  • Weather Map
  • Weather Widgets
  • user-avatar
    Login

    Hourly Weather Harare

    Today, 22 October, Tuesday

    Time Temperature Precipitation Wind Pressure Humidity
    00:00 +24°C° 0 mm 3 mps 637 mmHg 32%
    01:00 +22°C° 0 mm 3 mps 637 mmHg 35%
    02:00 +21°C° 0 mm 2 mps 636 mmHg 37%
    03:00 +21°C° 0 mm 2 mps 636 mmHg 39%
    04:00 +20°C° 0 mm 2 mps 636 mmHg 40%
    05:00 +20°C° 0 mm 2 mps 636 mmHg 42%
    06:00 +24°C° 0 mm 3 mps 637 mmHg 37%
    07:00 +26°C° 0 mm 3 mps 638 mmHg 32%
    08:00 +29°C° 0 mm 4 mps 639 mmHg 27%
    09:00 +32°C° 0 mm 4 mps 640 mmHg 22%
    10:00 +35°C° 0 mm 4 mps 640 mmHg 17%
    11:00 +37°C° 0 mm 4 mps 640 mmHg 13%
    12:00 +37°C° 0 mm 5 mps 640 mmHg 12%
    13:00 +37°C° 0 mm 5 mps 639 mmHg 12%
    14:00 +39°C° 0 mm 5 mps 639 mmHg 12%
    15:00 +37°C° 0 mm 5 mps 638 mmHg 13%
    16:00 +35°C° 0 mm 5 mps 638 mmHg 14%
    17:00 +34°C° 0 mm 5 mps 637 mmHg 16%
    18:00 +32°C° 0 mm 5 mps 637 mmHg 23%
    19:00 +29°C° 0 mm 5 mps 637 mmHg 31%
    20:00 +27°C° 0 mm 5 mps 637 mmHg 38%
    21:00 +25°C° 0 mm 5 mps 637 mmHg 47%
    22:00 +23°C° 0 mm 4 mps 637 mmHg 56%
    23:00 +22°C° 0 mm 4 mps 637 mmHg 65%

    Tomorrow, 23 October, Wednesday

    Time Temperature Precipitation Wind Pressure Humidity
    00:00 +21°C° 0 mm 4 mps 637 mmHg 68%
    01:00 +20°C° 0 mm 3 mps 637 mmHg 70%
    02:00 +19°C° 0 mm 3 mps 636 mmHg 72%
    03:00 +19°C° 0 mm 3 mps 636 mmHg 71%
    04:00 +19°C° 0 mm 4 mps 637 mmHg 70%
    05:00 +19°C° 0 mm 4 mps 637 mmHg 69%
    06:00 +21°C° 0 mm 5 mps 638 mmHg 59%
    07:00 +23°C° 0 mm 5 mps 639 mmHg 50%
    08:00 +26°C° 0 mm 6 mps 640 mmHg 40%
    09:00 +28°C° 0 mm 6 mps 640 mmHg 34%
    10:00 +32°C° 0 mm 5 mps 640 mmHg 28%
    11:00 +34°C° 0 mm 5 mps 640 mmHg 23%
    12:00 +35°C° 0 mm 5 mps 640 mmHg 21%
    13:00 +36°C° 0 mm 4 mps 639 mmHg 19%
    14:00 +37°C° 0 mm 4 mps 639 mmHg 17%
    15:00 +36°C° 0 mm 4 mps 638 mmHg 18%
    16:00 +35°C° 0 mm 4 mps 638 mmHg 18%
    17:00 +35°C° 0 mm 4 mps 637 mmHg 19%
    18:00 +32°C° 0 mm 4 mps 637 mmHg 23%
    19:00 +29°C° 0 mm 3 mps 637 mmHg 27%
    20:00 +27°C° 0 mm 3 mps 637 mmHg 31%
    21:00 +26°C° 0 mm 3 mps 637 mmHg 33%
    22:00 +25°C° 0 mm 3 mps 637 mmHg 35%
    23:00 +25°C° 0 mm 4 mps 637 mmHg 37%

    Day after tomorrow, 24 October, Thursday

    Time Temperature Precipitation Wind Pressure Humidity
    00:00 +24°C° 0 mm 3 mps 637 mmHg 38%
    01:00 +24°C° 0 mm 3 mps 637 mmHg 39%
    02:00 +22°C° 0 mm 3 mps 637 mmHg 40%
    03:00 +22°C° 0 mm 3 mps 637 mmHg 42%
    04:00 +21°C° 0 mm 3 mps 637 mmHg 45%
    05:00 +21°C° 0 mm 3 mps 637 mmHg 47%
    06:00 +23°C° 0 mm 4 mps 638 mmHg 43%
    07:00 +26°C° 0 mm 4 mps 640 mmHg 40%
    08:00 +28°C° 0 mm 4 mps 641 mmHg 36%
    09:00 +32°C° 0 mm 4 mps 641 mmHg 30%
    10:00 +34°C° 0 mm 4 mps 641 mmHg 23%
    11:00 +36°C° 0 mm 4 mps 641 mmHg 17%
    12:00 +37°C° 0 mm 4 mps 641 mmHg 16%
    13:00 +39°C° 0 mm 5 mps 640 mmHg 15%
    14:00 +39°C° 0 mm 5 mps 639 mmHg 13%
    15:00 +37°C° 0 mm 5 mps 639 mmHg 15%
    16:00 +36°C° 0 mm 4 mps 638 mmHg 16%
    17:00 +35°C° 0 mm 4 mps 638 mmHg 17%
    18:00 +33°C° 0 mm 4 mps 638 mmHg 20%
    19:00 +32°C° 0 mm 4 mps 638 mmHg 23%
    20:00 +29°C° 0 mm 3 mps 638 mmHg 26%
    21:00 +28°C° 0 mm 3 mps 638 mmHg 28%
    22:00 +26°C° 0 mm 4 mps 638 mmHg 30%
    23:00 +25°C° 0 mm 4 mps 638 mmHg 31%

    25 October, Friday

    Time Temperature Precipitation Wind Pressure Humidity
    00:00 +25°C° 0 mm 4 mps 638 mmHg 34%
    01:00 +23°C° 0 mm 4 mps 638 mmHg 36%
    02:00 +23°C° 0 mm 4 mps 637 mmHg 38%
    03:00 +22°C° 0 mm 4 mps 638 mmHg 41%
    04:00 +21°C° 0 mm 4 mps 638 mmHg 44%
    05:00 +21°C° 0 mm 3 mps 638 mmHg 47%
    06:00 +23°C° 0 mm 4 mps 639 mmHg 43%
    07:00 +26°C° 0 mm 5 mps 640 mmHg 39%
    08:00 +28°C° 0 mm 6 mps 641 mmHg 36%
    09:00 +30°C° 0 mm 5 mps 641 mmHg 31%
    10:00 +33°C° 0 mm 5 mps 641 mmHg 26%
    11:00 +35°C° 0 mm 4 mps 641 mmHg 21%
    12:00 +36°C° 0 mm 4 mps 641 mmHg 19%
    13:00 +36°C° 0 mm 4 mps 640 mmHg 17%
    14:00 +37°C° 0 mm 4 mps 639 mmHg 16%
    15:00 +36°C° 0 mm 4 mps 639 mmHg 16%
    16:00 +36°C° 0 mm 4 mps 639 mmHg 17%
    17:00 +35°C° 0 mm 4 mps 638 mmHg 17%
    18:00 +33°C° 0 mm 4 mps 638 mmHg 21%
    19:00 +29°C° 0 mm 3 mps 638 mmHg 24%
    20:00 +27°C° 0 mm 3 mps 638 mmHg 27%
    21:00 +26°C° 0 mm 3 mps 638 mmHg 30%
    22:00 +25°C° 0 mm 3 mps 638 mmHg 33%
    23:00 +25°C° 0 mm 3 mps 638 mmHg 35%

    26 October, Saturday

    Time Temperature Precipitation Wind Pressure Humidity
    00:00 +24°C° 0 mm 3 mps 638 mmHg 37%
    01:00 +24°C° 0 mm 3 mps 637 mmHg 40%
    02:00 +22°C° 0 mm 4 mps 637 mmHg 42%
    03:00 +22°C° 0 mm 3 mps 637 mmHg 43%
    04:00 +21°C° 0 mm 3 mps 638 mmHg 44%
    05:00 +21°C° 0 mm 3 mps 638 mmHg 46%
    06:00 +23°C° 0 mm 4 mps 639 mmHg 42%
    07:00 +26°C° 0 mm 4 mps 639 mmHg 37%
    08:00 +29°C° 0 mm 5 mps 640 mmHg 33%
    09:00 +32°C° 0 mm 4 mps 640 mmHg 29%
    10:00 +34°C° 0 mm 4 mps 641 mmHg 24%
    11:00 +36°C° 0 mm 3 mps 641 mmHg 19%
    12:00 +37°C° 0 mm 3 mps 640 mmHg 17%
    13:00 +38°C° 0 mm 3 mps 640 mmHg 15%
    14:00 +38°C° 0 mm 3 mps 639 mmHg 13%
    15:00 +38°C° 0 mm 4 mps 639 mmHg 14%
    16:00 +37°C° 0 mm 4 mps 638 mmHg 15%
    17:00 +36°C° 0 mm 4 mps 638 mmHg 15%
    18:00 +33°C° 0 mm 3 mps 637 mmHg 18%
    19:00 +30°C° 0 mm 3 mps 637 mmHg 22%
    20:00 +27°C° 0 mm 3 mps 637 mmHg 25%
    21:00 +27°C° 0 mm 3 mps 637 mmHg 26%
    22:00 +26°C° 0 mm 3 mps 637 mmHg 28%
    23:00 +25°C° 0 mm 3 mps 637 mmHg 30%

    27 October, Sunday

    Time Temperature Precipitation Wind Pressure Humidity
    00:00 +25°C° 0 mm 4 mps 637 mmHg 31%
    01:00 +23°C° 0 mm 4 mps 637 mmHg 33%
    02:00 +23°C° 0 mm 5 mps 636 mmHg 34%
    03:00 +22°C° 0 mm 5 mps 636 mmHg 37%
    04:00 +22°C° 0 mm 4 mps 637 mmHg 40%
    05:00 +21°C° 0 mm 4 mps 637 mmHg 44%
    06:00 +23°C° 0 mm 5 mps 637 mmHg 40%
    07:00 +26°C° 0 mm 5 mps 638 mmHg 37%
    08:00 +28°C° 0 mm 6 mps 639 mmHg 34%
    09:00 +32°C° 0 mm 5 mps 639 mmHg 29%
    10:00 +34°C° 0 mm 5 mps 640 mmHg 25%
    11:00 +36°C° 0 mm 4 mps 640 mmHg 21%
    12:00 +36°C° 0 mm 4 mps 639 mmHg 19%
    13:00 +37°C° 0 mm 4 mps 639 mmHg 17%
    14:00 +38°C° 0 mm 4 mps 638 mmHg 16%
    15:00 +37°C° 0 mm 4 mps 638 mmHg 16%
    16:00 +36°C° 0 mm 4 mps 637 mmHg 16%
    17:00 +36°C° 0 mm 4 mps 636 mmHg 17%
    18:00 +33°C° 0 mm 4 mps 636 mmHg 20%
    19:00 +30°C° 0 mm 3 mps 636 mmHg 23%
    20:00 +27°C° 0 mm 3 mps 635 mmHg 26%
    21:00 +26°C° 0 mm 3 mps 635 mmHg 27%
    22:00 +25°C° 0 mm 3 mps 635 mmHg 27%
    23:00 +25°C° 0 mm 3 mps 635 mmHg 28%

    28 October, Monday

    Time Temperature Precipitation Wind Pressure Humidity
    00:00 +24°C° 0 mm 3 mps 635 mmHg 29%
    01:00 +24°C° 0 mm 3 mps 635 mmHg 30%
    02:00 +22°C° 0 mm 3 mps 635 mmHg 31%
    03:00 +22°C° 0 mm 3 mps 635 mmHg 32%
    04:00 +21°C° 0 mm 3 mps 635 mmHg 33%
    05:00 +21°C° 0 mm 3 mps 635 mmHg 35%
    06:00 +24°C° 0 mm 3 mps 636 mmHg 30%
    07:00 +27°C° 0 mm 4 mps 637 mmHg 26%
    08:00 +30°C° 0 mm 5 mps 638 mmHg 22%
    09:00 +33°C° 0 mm 4 mps 638 mmHg 19%
    10:00 +35°C° 0 mm 4 mps 638 mmHg 17%
    11:00 +37°C° 0 mm 3 mps 639 mmHg 15%
    12:00 +38°C° 0 mm 3 mps 638 mmHg 13%
    13:00 +39°C° 0 mm 3 mps 637 mmHg 12%
    14:00 +40°C° 0 mm 3 mps 637 mmHg 11%
    15:00 +39°C° 0 mm 3 mps 636 mmHg 10%
    16:00 +38°C° 0 mm 2 mps 636 mmHg 10%
    17:00 +37°C° 0 mm 2 mps 635 mmHg 10%
    18:00 +34°C° 0 mm 2 mps 635 mmHg 13%
    19:00 +30°C° 0 mm 2 mps 635 mmHg 15%
    20:00 +27°C° 0 mm 2 mps 634 mmHg 18%
    21:00 +26°C° 0 mm 2 mps 634 mmHg 19%
    22:00 +25°C° 0 mm 2 mps 634 mmHg 20%
    23:00 +25°C° 0 mm 2 mps 634 mmHg 21%
    Show more